Regional Weather Roundup
Issued by NWS

Home | Current Version | Previous Version | Graphics & Text | Print | Product List | Glossary On
Versions: 1 2 3 4 5 6 7 8 9 10 11 12 13 14 15 16 17 18 19 20 21 22 23 24 25 26 27 28 29 30 31 32 33 34 35 36 37 38 39 40 41 42 43 44 45 46 47 48 49 50
000
ASUS43 KLMK 242202
RWRKY
KENTUCKY REGIONAL WEATHER ROUNDUP
NATIONAL WEATHER SERVICE LOUISVILLE KY
600 PM EDT MON APR 24 2017

NOTE "FAIR" INDICATES FEW OR NO CLOUDS BELOW 12,000 FEET
WITH NO SIGNIFICANT WEATHER AND/OR OBSTRUCTIONS TO VISIBILITY.

KYZ001>023-026-027-061>063-070>075-242300-
WESTERN AND SOUTH CENTRAL KENTUCKY

CITY           SKY/WX    TMP DP  RH WIND       PRES   REMARKS
PADUCAH        SUNNY     76  48  37 N5        29.75F
HENDERSON      SUNNY     75  44  33 NE5       29.76F
OWENSBORO      PTSUNNY   75  50  41 E3        29.76F
HOPKINSVILLE   PTSUNNY   70  53  56 CALM      29.77F
BOWLING GREEN  CLOUDY    71  55  56 CALM      29.78F
GLASGOW        NOT AVBL
$$

KYZ024-025-028>034-038-045-046-053-242300-
NORTH CENTRAL KENTUCKY

CITY           SKY/WX    TMP DP  RH WIND       PRES   REMARKS
LOUISVILLE/SDF PTSUNNY   74  49  41 E12       29.77S
LOUISVILLE/LOU CLOUDY    74  50  42 E7        29.77F
FORT KNOX      CLOUDY    71  51  50 E9        29.76S
$$

KYZ035>037-039>044-047>052-055>060-089>105-242300-
NORTHEAST KENTUCKY

CITY           SKY/WX    TMP DP  RH WIND       PRES   REMARKS
LEXINGTON      PTSUNNY   66  50  56 E12       29.80F
COVINGTON      PTSUNNY   70  52  52 E17       29.80F
FRANKFORT      CLOUDY    68  51  54 E10       29.78F
$$

KYZ054-064>069-076>088-106>120-242300-
SOUTHEAST KENTUCKY

CITY           SKY/WX    TMP DP  RH WIND       PRES   REMARKS
JACKSON        PTSUNNY   63  52  67 VRB5      29.80F
LONDON         CLOUDY    65  52  62 VRB6      29.78S
SOMERSET       CLOUDY    64  52  63 E3        29.79S
MIDDLESBORO    CLOUDY    67  55  63 N3        29.77S
MONTICELLO     CLOUDY    66  55  67 N14       29.80S
$$





USA.gov is the U.S. government's official web portal to all federal, state and local government web resources and services.